Location: Newark
(32.2500°S, 148.6000°E)
Time: 12:04:12
(UTC+00:00)

Envisat - Visible Passes

Search period start: 18 October 2019 00:00
Search period end: 28 October 2019 00:00
Orbit: 764 x 766 km, 98.1° (Epoch: 18 October)

Date Brightness Start Highest point End Pass type
(mag) Time Alt. Az. Time Alt. Az. Time Alt. Az.
18 Oct 5.6 10:03:03 10° SSW 10:06:47 21° WSW 10:10:31 10° WNW visible
19 Oct 4.1 09:25:22 10° S 09:30:19 48° WSW 09:35:11 10° NNW visible
20 Oct 3.0 08:48:30 10° SSE 08:53:38 70° ENE 08:58:42 10° N visible
20 Oct 6.3 10:30:28 10° SW 10:31:58 11° WSW 10:33:28 10° W visible
21 Oct 5.3 09:51:24 10° SSW 09:55:37 26° WSW 09:59:50 10° NW visible
22 Oct 3.6 09:14:00 10° S 09:19:05 63° WSW 09:24:07 10° NNW visible
23 Oct 6.1 10:18:06 10° SSW 10:20:51 15° WSW 10:23:36 10° W visible
24 Oct 4.8 09:39:52 10° S 09:44:27 34° WSW 09:49:00 10° NW visible
25 Oct 3.2 09:02:42 10° S 09:07:51 82° WSW 09:12:57 10° NNW visible
26 Oct 5.8 10:06:12 10° SSW 10:09:43 19° WSW 10:13:13 10° WNW visible
27 Oct 4.3 09:28:24 10° S 09:33:16 43° WSW 09:38:04 10° NW visible
